EUTELSAT QUANTUM

Last updated on Thu Aug 13 2026 00:03:02 GMT+0000 (Coordinated Universal Time)

1 49056U 21069B 26224.58154150 .00000000 00000+0 00000+0 0 9995 2 49056 0.0148 79.6986 0002207 66.2880 72.0836 1.00271041 18499
UTC large
Height (km)
Speed (km/s)
/
Latitude / Longitude
Inclination (degrees)
Orbital Period (minutes)
Azimuth
Elevation
Range (km)
Doppler Factor

Next 0 passes for location: London (51.5072 / 0.1276)

No passes found over London.
EUTELSAT QUANTUM